Location: ???? ????
(31.2831°N, 45.5190°E)
Time: 04:38:26
(UTC+00:00)

Cosmos 44 - Pass Details

Date: 24 February 2021
Orbit: 571 x 791 km, 65.1° (Epoch: 14 April)

Event Time Altitude Azimuth Distance (km) Brightness Sun altitude
Rises 15:52:45 0° 338° (NNW) 3,287 7.0 -13.6°
Reaches altitude 10° 15:55:15 10° 343° (NNW) 2,356 6.2 -14.2°
Maximum altitude 16:00:35 53° 60° (ENE) 951 3.6 -15.3°
Enters shadow 16:04:55 15° 134° (SE) 1,986 5.2 -16.2°
